Weather History for KCLT - November, 2013

Change the Weather History Date:

Saturday, November 23, 2013

  Actual Average Record
Temperature  
Mean Temperature 52 °F 48 °F  
Max Temperature 61 °F 60 °F 78 °F (1900)
Min Temperature 42 °F 37 °F 18 °F (1880)
Degree Days  
Heating Degree Days 13 17  
Month to date heating degree days 312 305  
Since 1 July heating degree days 445 511  
Cooling Degree Days 0 0  
Month to date cooling degree days 1 0  
Year to date cooling degree days 1577 1513  
Growing Degree Days 2 (Base 50)    
Moisture  
Dew Point 46 °F    
Average Humidity 66    
Maximum Humidity 100    
Minimum Humidity 31    
Precipitation  
Precipitation T in 0.11 in 1.72 in (2014)
Month to date precipitation 0.95 2.37  
Year to date precipitation 39.81 37.61  
Snow  
Snow 0.00 in 0.00 in 0.50 in (1975)
Month to date snowfall T 0.1  
Since 1 July snowfall T 0.1  
Since 1 September snowfall T 0.1  
Snow Depth 0.00 in    
Sea Level Pressure  
Sea Level Pressure 30.12 in    
Wind  
Wind Speed 7 mph (NNW)    
Max Wind Speed 16 mph    
Max Gust Speed 26 mph    
Visibility 7 miles    
Events Fog    
T = Trace of Precipitation, MM = Missing Value Source: NWS Daily Summary

Daily Weather History Graph

Daily Weather History Graph

Search for Another Location

Airport or City:

Trip Planner

Search our weather history database for the weather conditions in past years. The results will help you decide how hot, cold, wet, or windy it might be!

Date:

Astronomy

Nov. 23, 2013 Rise Set
Actual Time 7:06 AM EST 5:13 PM EST
Civil Twilight 6:39 AM EST 5:41 PM EST
Nautical Twilight 6:08 AM EST 6:12 PM EST
Astronomical Twilight 5:37 AM EST 6:42 PM EST
Moon 10:35 PM EST (11/23) 11:26 AM EST (11/23)
Length of Visible Light 11h 01m
Length of Day
10h 06m
Waning Gibbous, 70% of the Moon is Illuminated
Nov 23
Waning Gibbous
Nov 25
Last Quarter
Dec 2
New
Dec 9
First Quarter
Dec 17
Full

Hourly Weather History & Observations

Time (EST) Temp. Windchill Dew Point Humidity Pressure Visibility Wind Dir Wind Speed Gust Speed Precip Events Conditions
12:52 AM 59.0 °F - 57.9 °F 96% 30.11 in 8.0 mi WSW 3.5 mph - 0.00 in   Overcast
1:06 AM 59.0 °F - 57.2 °F 94% 30.12 in 8.0 mi WSW 3.5 mph - N/A   Overcast
1:52 AM 59.0 °F - 57.9 °F 96% 30.11 in 8.0 mi West 4.6 mph - N/A   Overcast
2:40 AM 59.0 °F - 57.2 °F 94% 30.12 in 7.0 mi Calm Calm - N/A   Overcast
2:52 AM 59.0 °F - 57.0 °F 93% 30.11 in 7.0 mi Calm Calm - N/A   Overcast
3:52 AM 57.9 °F - 57.0 °F 97% 30.09 in 8.0 mi Calm Calm - 0.00 in   Overcast
4:52 AM 57.0 °F - 55.9 °F 96% 30.08 in 8.0 mi Calm Calm - N/A   Overcast
5:23 AM 55.4 °F - 55.4 °F 100% 30.09 in 3.0 mi Calm Calm - N/A   Overcast
5:45 AM 53.6 °F - 53.6 °F 100% 30.09 in 2.0 mi Calm Calm - N/A   Overcast
5:52 AM 54.0 °F - 53.1 °F 97% 30.08 in 2.0 mi Calm Calm - N/A   Overcast
6:09 AM 55.4 °F - 55.4 °F 100% 30.09 in 0.5 mi WNW 3.5 mph - N/A   Overcast
6:29 AM 55.4 °F - 55.4 °F 100% 30.10 in 0.2 mi Calm Calm - N/A Fog Fog
6:52 AM 55.0 °F - 55.0 °F 100% 30.10 in 0.1 mi Calm Calm - N/A Fog Fog
6:55 AM 55.4 °F - 55.4 °F 100% 30.11 in 0.1 mi Calm Calm - N/A Fog Fog
7:13 AM 55.4 °F - 55.4 °F 100% 30.11 in 0.5 mi Calm Calm - N/A Fog Fog
7:39 AM 55.4 °F - 55.4 °F 100% 30.12 in 0.1 mi North 4.6 mph - N/A Fog Fog
7:52 AM 55.9 °F - 55.9 °F 100% 30.12 in 0.1 mi North 4.6 mph - N/A Fog Fog
8:18 AM 55.4 °F - 55.4 °F 100% 30.13 in 0.5 mi Calm Calm - N/A Fog Fog
8:27 AM 55.4 °F - 55.4 °F 100% 30.14 in 4.0 mi Calm Calm - N/A   Overcast
8:52 AM 57.0 °F - 55.9 °F 96% 30.13 in 7.0 mi North 3.5 mph - N/A   Overcast
9:52 AM 59.0 °F - 52.0 °F 78% 30.15 in 10.0 mi North 9.2 mph - N/A   Overcast
10:52 AM 57.9 °F - 50.0 °F 75% 30.15 in 10.0 mi NNE 6.9 mph - N/A   Overcast
11:52 AM 57.9 °F - 48.0 °F 70% 30.11 in 10.0 mi Variable 6.9 mph - N/A   Overcast
12:52 PM 59.0 °F - 48.0 °F 67% 30.10 in 10.0 mi North 5.8 mph - N/A   Overcast
1:52 PM 60.1 °F - 46.0 °F 60% 30.07 in 10.0 mi North 4.6 mph - N/A   Overcast
2:52 PM 60.1 °F - 37.0 °F 42% 30.07 in 10.0 mi NW 11.5 mph 16.1 mph N/A   Mostly Cloudy
3:52 PM 60.1 °F - 37.0 °F 42% 30.08 in 10.0 mi NNW 10.4 mph - N/A   Mostly Cloudy
4:52 PM 57.9 °F - 30.0 °F 35% 30.09 in 10.0 mi NNW 10.4 mph - N/A   Mostly Cloudy
5:52 PM 55.0 °F - 27.0 °F 34% 30.10 in 10.0 mi NNW 11.5 mph - N/A   Mostly Cloudy
6:52 PM 52.0 °F - 23.0 °F 32% 30.13 in 10.0 mi NNW 15.0 mph 20.7 mph N/A   Mostly Cloudy
7:52 PM 48.9 °F - 25.0 °F 39% 30.15 in 10.0 mi NNW 9.2 mph - N/A   Mostly Cloudy
8:52 PM 46.0 °F 43.9 °F 26.1 °F 46% 30.15 in 10.0 mi NNW 4.6 mph - N/A   Mostly Cloudy
9:52 PM 46.9 °F - 17.1 °F 30% 30.17 in 10.0 mi NNW 13.8 mph 20.7 mph N/A   Scattered Clouds
10:52 PM 44.1 °F 40.1 °F 19.0 °F 37% 30.19 in 10.0 mi NNW 6.9 mph - N/A   Partly Cloudy
11:52 PM 42.1 °F 34.9 °F 21.0 °F 43% 30.21 in 10.0 mi North 13.8 mph - N/A   Partly Cloudy